Location: Unspecified
(0.0000°N, 0.0000°E)
Time: 17:26:15
(UTC+00:00)

ISS - Pass Details

Date: 16 January 2020
Orbit: 415 x 422 km, 51.6° (Epoch: 23 January)

Event Time Altitude Azimuth Distance (km) Brightness Sun altitude
Rises 18:43:50 0° 251° (WSW) 2,364 2.7 -8.0°
Reaches altitude 10° 18:47:15 10° 288° (WNW) 1,495 -0.1 -8.8°
Maximum altitude 18:48:17 11° 306° (NW) 1,427 -0.6 -9.0°
Drops below altitude 10° 18:49:21 10° 324° (NW) 1,492 -0.8 -9.3°
Sets 18:52:45 0° 2° (N) 2,349 -0.2 -10.0°
